Simultaneous Nadir Overpasses (SNOs) Predictions

Prediction of SNOs between GOES-16 and METOP-B Satellite Orbit:

Table of predicted SNOs for the next 14.0 days since TLE Epoch: 9/16/2023
Index Date Time (GOES-16) GOES-16 Lat,Lon METOP-B Lat,Lon Distance(km) Time Diff (sec)
1 09/17/2023 14:36:36 -0.05, -75.22 0.40, -77.30 236.44 80
2 09/18/2023 14:18:36 -0.05, -75.23 -0.73, -72.31 333.65 80
3 09/20/2023 02:34:54 0.05, -75.22 -0.30, -76.90 190.46 80
4 09/21/2023 02:16:53 0.05, -75.23 0.77, -71.89 379.67 80
5 09/22/2023 14:33:03 -0.05, -75.25 0.20, -76.46 137.33 80
6 09/23/2023 14:15:02 -0.04, -75.26 -0.88, -71.46 432.87 80
7 09/25/2023 02:31:20 0.04, -75.25 -0.14, -76.05 90.82 80
8 09/26/2023 02:13:20 0.04, -75.26 1.00, -71.06 479.71 80
9 09/27/2023 14:32:09 -0.04, -75.29 0.01, -75.61 36.19 80
